When you browse on this site, cookies collect data to enhance your experience and personalize the content and advertising you see.
Visit our Privacy Policy to learn more. By continuing to use the site, you agree to this use of cookies and data.
  • In Latvia
  • List of Countries
  • For 7 days
  • Water Temperature
  • Satellite Maps
  • Weather Map
  • Weather Widgets
  • user-avatar
    Login

    Hourly Weather Kaprun

    Today, 21 April, Sunday

    Time Temperature Precipitation Wind Pressure Humidity
    00:00 -1°C° 0 mm 2 mps 600 mmHg 70%
    01:00 -2°C° 0 mm 2 mps 599 mmHg 66%
    02:00 -2°C° 0 mm 2 mps 599 mmHg 67%
    03:00 -2°C° 0 mm 2 mps 599 mmHg 68%
    04:00 -2°C° 0 mm 2 mps 598 mmHg 68%
    05:00 -1°C° 0 mm 2 mps 599 mmHg 68%
    06:00 +1°C° 0 mm 2 mps 599 mmHg 67%
    07:00 +3°C° 0 mm 2 mps 600 mmHg 65%
    08:00 +6°C° 0 mm 1 mps 600 mmHg 62%
    09:00 +8°C° 0 mm 1 mps 601 mmHg 59%
    10:00 +10°C° 0 mm 1 mps 601 mmHg 56%
    11:00 +11°C° 0 mm 1 mps 601 mmHg 54%
    12:00 +12°C° 0 mm 1 mps 601 mmHg 52%
    13:00 +12°C° 0 mm 1 mps 601 mmHg 50%
    14:00 +12°C° 0 mm 1 mps 601 mmHg 51%
    15:00 +12°C° 0 mm 1 mps 600 mmHg 51%
    16:00 +12°C° 0 mm 1 mps 600 mmHg 52%
    17:00 +9°C° 0 mm 1 mps 599 mmHg 60%
    18:00 +7°C° 0 mm 1 mps 598 mmHg 68%
    19:00 +5°C° 0 mm 1 mps 597 mmHg 76%
    20:00 +3°C° 0 mm 2 mps 596 mmHg 79%
    21:00 +2°C° 0 mm 2 mps 596 mmHg 81%
    22:00 +2°C° 0 mm 2 mps 596 mmHg 84%
    23:00 +1°C° 0 mm 2 mps 596 mmHg 84%

    Tomorrow, 22 April, Monday

    Time Temperature Precipitation Wind Pressure Humidity
    00:00 +1°C° 0 mm 2 mps 596 mmHg 85%
    01:00 0°C° 0 mm 3 mps 596 mmHg 86%
    02:00 +1°C° 0 mm 2 mps 595 mmHg 85%
    03:00 -1°C° 0 mm 2 mps 595 mmHg 84%
    04:00 -1°C° 0 mm 2 mps 594 mmHg 84%
    05:00 +1°C° 0 mm 2 mps 594 mmHg 80%
    06:00 +2°C° 0 mm 2 mps 595 mmHg 76%
    07:00 +3°C° 0 mm 2 mps 595 mmHg 73%
    08:00 +5°C° 0 mm 2 mps 595 mmHg 63%
    09:00 +7°C° 0 mm 2 mps 596 mmHg 54%
    10:00 +10°C° 0 mm 2 mps 596 mmHg 44%
    11:00 +10°C° 0 mm 2 mps 596 mmHg 42%
    12:00 +12°C° 0 mm 2 mps 596 mmHg 41%
    13:00 +13°C° 0 mm 2 mps 596 mmHg 39%
    14:00 +13°C° 0 mm 2 mps 595 mmHg 42%
    15:00 +12°C° 0 mm 2 mps 594 mmHg 45%
    16:00 +11°C° 0 mm 3 mps 594 mmHg 48%
    17:00 +9°C° 0 mm 3 mps 593 mmHg 59%
    18:00 +5°C° 0 mm 3 mps 592 mmHg 69%
    19:00 +3°C° 0 mm 3 mps 590 mmHg 80%
    20:00 +1°C° 0 mm 4 mps 590 mmHg 82%
    21:00 +1°C° 0 mm 4 mps 590 mmHg 83%
    22:00 0°C° 0 mm 4 mps 590 mmHg 84%
    23:00 -1°C° 0 mm 4 mps 589 mmHg 83%

    Day after tomorrow, 23 April, Tuesday

    Time Temperature Precipitation Wind Pressure Humidity
    00:00 -2°C° 0 mm 4 mps 588 mmHg 82%
    01:00 -2°C° 0 mm 4 mps 588 mmHg 81%
    02:00 -2°C° 0 mm 4 mps 588 mmHg 81%
    03:00 -2°C° 0 mm 4 mps 588 mmHg 82%
    04:00 -2°C° 0 mm 4 mps 587 mmHg 82%
    05:00 -1°C° 0.1 mm 4 mps 588 mmHg 81%
    06:00 0°C° 0.1 mm 4 mps 588 mmHg 79%
    07:00 +1°C° 0.1 mm 4 mps 588 mmHg 77%
    08:00 +3°C° 0.1 mm 4 mps 588 mmHg 73%
    09:00 +4°C° 0.1 mm 4 mps 589 mmHg 70%
    10:00 +6°C° 0.1 mm 4 mps 589 mmHg 66%
    11:00 +6°C° 0.1 mm 4 mps 590 mmHg 64%
    12:00 +6°C° 0.1 mm 4 mps 590 mmHg 63%
    13:00 +7°C° 0.1 mm 4 mps 590 mmHg 61%
    14:00 +7°C° 0.1 mm 4 mps 590 mmHg 62%
    15:00 +7°C° 0.1 mm 4 mps 590 mmHg 63%
    16:00 +6°C° 0.1 mm 4 mps 589 mmHg 64%
    17:00 +5°C° 0 mm 4 mps 589 mmHg 69%
    18:00 +4°C° 0 mm 4 mps 589 mmHg 75%
    19:00 +1°C° 0 mm 4 mps 588 mmHg 80%
    20:00 +1°C° 0 mm 4 mps 588 mmHg 81%
    21:00 +1°C° 0 mm 4 mps 589 mmHg 82%
    22:00 0°C° 0 mm 4 mps 589 mmHg 83%
    23:00 0°C° 0 mm 4 mps 589 mmHg 84%

    24 April, Wednesday

    Time Temperature Precipitation Wind Pressure Humidity
    00:00 0°C° 0 mm 4 mps 590 mmHg 85%
    01:00 0°C° 0 mm 4 mps 590 mmHg 86%
    02:00 0°C° 0 mm 4 mps 590 mmHg 86%
    03:00 +1°C° 0 mm 3 mps 590 mmHg 86%
    04:00 +1°C° 0 mm 3 mps 591 mmHg 87%
    05:00 +2°C° 0 mm 3 mps 591 mmHg 85%
    06:00 +2°C° 0 mm 3 mps 592 mmHg 83%
    07:00 +3°C° 0 mm 3 mps 593 mmHg 80%
    08:00 +5°C° 0 mm 3 mps 593 mmHg 75%
    09:00 +7°C° 0 mm 3 mps 594 mmHg 70%
    10:00 +8°C° 0 mm 3 mps 595 mmHg 65%
    11:00 +8°C° 0 mm 4 mps 595 mmHg 62%
    12:00 +8°C° 0 mm 4 mps 595 mmHg 60%
    13:00 +10°C° 0 mm 4 mps 596 mmHg 58%
    14:00 +10°C° 0 mm 4 mps 595 mmHg 59%
    15:00 +8°C° 0 mm 4 mps 595 mmHg 61%
    16:00 +8°C° 0 mm 4 mps 595 mmHg 62%
    17:00 +7°C° 0 mm 4 mps 595 mmHg 68%
    18:00 +5°C° 0 mm 4 mps 594 mmHg 74%
    19:00 +4°C° 0 mm 4 mps 594 mmHg 80%
    20:00 +3°C° 0 mm 4 mps 594 mmHg 82%
    21:00 +3°C° 0 mm 4 mps 594 mmHg 84%
    22:00 +3°C° 0 mm 4 mps 595 mmHg 85%
    23:00 +3°C° 0 mm 4 mps 595 mmHg 85%

    25 April, Thursday

    Time Temperature Precipitation Wind Pressure Humidity
    00:00 +3°C° 0 mm 4 mps 595 mmHg 85%
    01:00 +3°C° 0 mm 4 mps 595 mmHg 85%
    02:00 +1°C° 0 mm 4 mps 595 mmHg 84%
    03:00 +1°C° 0 mm 4 mps 594 mmHg 84%
    04:00 +1°C° 0 mm 4 mps 594 mmHg 84%
    05:00 +3°C° 0 mm 4 mps 595 mmHg 82%
    06:00 +3°C° 0 mm 4 mps 595 mmHg 80%
    07:00 +4°C° 0 mm 4 mps 595 mmHg 78%
    08:00 +5°C° 0 mm 4 mps 596 mmHg 74%
    09:00 +6°C° 0 mm 5 mps 596 mmHg 69%
    10:00 +8°C° 0 mm 5 mps 597 mmHg 65%
    11:00 +8°C° 0 mm 5 mps 597 mmHg 63%
    12:00 +9°C° 0 mm 5 mps 597 mmHg 61%
    13:00 +9°C° 0 mm 5 mps 597 mmHg 59%
    14:00 +9°C° 0 mm 5 mps 596 mmHg 61%
    15:00 +8°C° 0 mm 5 mps 596 mmHg 63%
    16:00 +8°C° 0 mm 5 mps 595 mmHg 65%
    17:00 +7°C° 0 mm 4 mps 595 mmHg 70%
    18:00 +6°C° 0 mm 4 mps 594 mmHg 76%
    19:00 +4°C° 0 mm 4 mps 594 mmHg 81%
    20:00 +4°C° 0 mm 4 mps 594 mmHg 83%
    21:00 +4°C° 0 mm 4 mps 594 mmHg 85%
    22:00 +3°C° 0 mm 4 mps 594 mmHg 86%
    23:00 +3°C° 0 mm 4 mps 594 mmHg 87%

    26 April, Friday

    Time Temperature Precipitation Wind Pressure Humidity
    00:00 +3°C° 0 mm 4 mps 594 mmHg 87%
    01:00 +3°C° 0 mm 4 mps 594 mmHg 87%
    02:00 +3°C° 0.1 mm 3 mps 594 mmHg 88%
    03:00 +2°C° 0.1 mm 3 mps 593 mmHg 89%
    04:00 +2°C° 0.1 mm 3 mps 593 mmHg 90%
    05:00 +3°C° 0 mm 2 mps 594 mmHg 88%
    06:00 +4°C° 0 mm 2 mps 594 mmHg 86%
    07:00 +4°C° 0 mm 2 mps 594 mmHg 84%
    08:00 +4°C° 0.2 mm 2 mps 594 mmHg 82%
    09:00 +5°C° 0.2 mm 2 mps 595 mmHg 81%
    10:00 +5°C° 0.2 mm 2 mps 595 mmHg 79%
    11:00 +4°C° 0.9 mm 2 mps 594 mmHg 82%
    12:00 +3°C° 0.9 mm 2 mps 594 mmHg 85%
    13:00 +2°C° 0.9 mm 2 mps 593 mmHg 88%
    14:00 0°C° 2.4 mm 3 mps 593 mmHg 91%
    15:00 -2°C° 2.4 mm 3 mps 593 mmHg 93%
    16:00 -4°C° 2.4 mm 3 mps 592 mmHg 96%
    17:00 -5°C° 2.2 mm 3 mps 592 mmHg 96%
    18:00 -5°C° 2.2 mm 2 mps 592 mmHg 96%
    19:00 -6°C° 2.2 mm 2 mps 592 mmHg 96%
    20:00 -6°C° 1.6 mm 2 mps 592 mmHg 96%
    21:00 -6°C° 1.6 mm 2 mps 593 mmHg 97%
    22:00 -5°C° 1.6 mm 2 mps 594 mmHg 97%
    23:00 -5°C° 1.2 mm 2 mps 594 mmHg 97%
    Show more